User: anonymous   Login
Location: Unspecified
(0.0000°N, 0.0000°E)
Time: 10:47:58
(UTC+00:00)
Language:

GONETS M 12 (M22) - Orbit

View from above orbital plane
View from above orbital plane
View from above satellite
View from above satellite

Ground track
Ground track

The orbit data is extracted from the following two-line orbital elements,

1 40553U 15020B   17202.72497816 +.00000010 +00000-0 +00000-0 0  9992
2 40553 082.4893 257.6704 0013019 235.7555 124.2296 12.42896300104736
Epoch (UTC): 21 July 2017 17:23:58
Eccentricity: 0.0013019
inclination: 82.4893°
perigee height: 1484 km
apogee height: 1504 km
right ascension of ascending node: 257.6704°
argument of perigee: 235.7555°
revolutions per day: 12.42896300
mean anomaly at epoch: 124.2296°
orbit number at epoch: 10473

The dashed part of the orbit path shows where the satellite is in the earth's shadow,  

DLR